ARC-1

导读

ARC-1是一颗由美国发射的人造卫星,于2015年10月8日08:00成功发射升空。作为美国航天发射任务中的一颗卫星,它被部署进预定轨道,承担着相关空间探测或技术验证类使命,延续了美国在航天领域持续推进太空基础设施建设的节奏,是美国2015年航天发射活动中的组成部分,助力其拓展空间应用与技术积累。

Basic Information
目录编号:
40969
目录名称:
ARC-1
国际标识:
2015-058F
轨道中心:
EARTH
卫星名称:
ARC-1
卫星全名:
--
卫星状态:
在轨 (已飞行3991 天)
发射日期:
2015-10-08 UTC
国别 :
美国 (US)
星等 :
--
This satellite is enrolled in the Space Conjunction Data Service (SCDS) and the current flight risk assessment level is: No High Risk
Orbit Information
数据来源 国际轨道数据
星历时间: 2026-09-11T12:19:59+0800
8小时前
查看轨道信息
半长轴: 6754.398km
偏心率: 0.0034551
轨道倾角: 64.755°
近地点辐角 332.980°
升交点赤经 181.106°
平近点角 26.954°
近地点: 352.923km
远地点: 399.599km
周期: 92.075分钟
每日圈数: 15.639498
Detailed Information
使用方式:
暂无
2D Orbit Map
3D Orbit Map
Orbit Altitude Analysis Chart
Orbit Inclination Analysis Chart
Orbit Comprehensive Analysis Chart
View Comprehensive Chart
Conjunction Data List
Event ID Objects TCA Miss Dist (km) Collision Risk Probability Collision Risk Index (CRI) Action
CDM_260912-230304-096906-222121
ARC-1 (40969)
2026-09-12T
23:03:15+0000
2.120 km
极远距离
1.804011E-6 低风险 0.4
CDM_260912-152504-096906-366821
ARC-1 (40969)
2026-09-12T
15:25:16+0000
2.686 km
极远距离
9.588143E-7 极低风险 0.35
CDM_260912-200804-096906-311521
ARC-1 (40969)
2026-09-12T
20:08:09+0000
2.262 km
极远距离
8.790701E-7 极低风险 0.34
Miss Distance Evolution Trend with All Objects
Collision Probability Evolution Trend with All Objects